Time,TemperatureF,DewpointF,PressureIn,WindDirection,WindDirectionDegrees,WindSpeedMPH,WindSpeedGustMPH,Humidity,HourlyPrecipIn,Conditions,Clouds,dailyrainin,SoftwareType,DateUTC
2013-09-13 00:04:00,78.0,0.0,29.90,ENE,78,6.0,7.0,35,-99.99,,,-99.99,,2013-09-13 07:04:00,
2013-09-13 00:12:00,78.0,0.0,29.90,ENE,61,5.0,7.0,34,-99.99,,,-99.99,,2013-09-13 07:12:00,
2013-09-13 00:20:00,78.0,0.0,29.90,East,100,2.0,6.0,35,-99.99,,,-99.99,,2013-09-13 07:20:00,
2013-09-13 00:28:00,78.0,0.0,29.90,SW,228,0.0,6.0,35,-99.99,,,-99.99,,2013-09-13 07:28:00,
2013-09-13 00:36:00,79.0,0.0,29.90,SE,144,3.0,6.0,34,-99.99,,,-99.99,,2013-09-13 07:36:00,
2013-09-13 00:44:00,78.0,0.0,29.90,SSE,154,5.0,6.0,34,-99.99,,,-99.99,,2013-09-13 07:44:00,
2013-09-13 00:52:00,77.0,0.0,29.90,SE,145,3.0,6.0,34,-99.99,,,-99.99,,2013-09-13 07:52:00,
2013-09-13 01:00:00,78.0,0.0,29.90,SSE,149,5.0,6.0,36,-99.99,,,-99.99,,2013-09-13 08:00:00,
2013-09-13 01:08:00,78.0,0.0,29.90,SSE,159,7.0,7.0,34,-99.99,,,-99.99,,2013-09-13 08:08:00,
2013-09-13 01:16:00,78.0,0.0,29.90,SSE,160,6.0,9.0,34,-99.99,,,-99.99,,2013-09-13 08:16:00,
2013-09-13 01:24:00,78.0,0.0,29.90,SSE,163,9.0,9.0,34,-99.99,,,-99.99,,2013-09-13 08:24:00,
2013-09-13 01:32:00,77.0,0.0,29.90,SSE,153,6.0,9.0,35,-99.99,,,-99.99,,2013-09-13 08:32:00,
2013-09-13 01:40:00,77.0,0.0,29.90,SSE,165,6.0,9.0,36,-99.99,,,-99.99,,2013-09-13 08:40:00,
2013-09-13 01:48:00,77.0,0.0,29.90,SSE,162,8.0,9.0,35,-99.99,,,-99.99,,2013-09-13 08:48:00,
2013-09-13 01:56:00,76.0,0.0,29.90,South,178,8.0,9.0,36,-99.99,,,-99.99,,2013-09-13 08:56:00,
2013-09-13 02:04:00,75.0,0.0,29.90,South,183,7.0,8.0,37,-99.99,,,-99.99,,2013-09-13 09:04:00,
2013-09-13 02:12:00,75.0,0.0,29.90,South,190,7.0,8.0,38,-99.99,,,-99.99,,2013-09-13 09:12:00,
2013-09-13 02:20:00,75.0,0.0,29.90,SSW,203,7.0,7.0,39,-99.99,,,-99.99,,2013-09-13 09:20:00,
2013-09-13 02:28:00,76.0,0.0,29.91,SW,215,6.0,7.0,38,-99.99,,,-99.99,,2013-09-13 09:28:00,
2013-09-13 02:36:00,74.0,0.0,29.91,SW,234,6.0,7.0,37,-99.99,,,-99.99,,2013-09-13 09:36:00,
2013-09-13 02:44:00,75.0,0.0,29.91,WSW,239,6.0,7.0,38,-99.99,,,-99.99,,2013-09-13 09:44:00,
2013-09-13 02:52:00,74.0,0.0,29.91,SW,220,7.0,7.0,39,-99.99,,,-99.99,,2013-09-13 09:52:00,
2013-09-13 03:00:00,74.0,0.0,29.91,SW,215,7.0,8.0,39,-99.99,,,-99.99,,2013-09-13 10:00:00,
2013-09-13 03:08:00,76.0,0.0,29.91,SSW,197,6.0,7.0,40,-99.99,,,-99.99,,2013-09-13 10:08:00,
2013-09-13 03:16:00,76.0,0.0,29.91,SSW,196,6.0,7.0,38,-99.99,,,-99.99,,2013-09-13 10:16:00,
2013-09-13 03:24:00,75.0,0.0,29.91,North,5,1.0,6.0,39,-99.99,,,-99.99,,2013-09-13 10:24:00,
2013-09-13 03:32:00,74.0,0.0,29.90,East,93,2.0,3.0,39,-99.99,,,-99.99,,2013-09-13 10:32:00,
2013-09-13 03:40:00,75.0,0.0,29.90,South,176,2.0,3.0,42,-99.99,,,-99.99,,2013-09-13 10:40:00,
2013-09-13 03:48:00,75.0,0.0,29.91,WNW,292,5.0,5.0,40,-99.99,,,-99.99,,2013-09-13 10:48:00,
2013-09-13 03:56:00,75.0,0.0,29.90,SW,226,3.0,5.0,38,-99.99,,,-99.99,,2013-09-13 10:56:00,
2013-09-13 04:04:00,75.0,0.0,29.90,SSW,196,5.0,5.0,39,-99.99,,,-99.99,,2013-09-13 11:04:00,
2013-09-13 04:12:00,75.0,0.0,29.90,WSW,252,5.0,6.0,39,-99.99,,,-99.99,,2013-09-13 11:12:00,
2013-09-13 04:20:00,75.0,0.0,29.90,West,269,2.0,5.0,38,-99.99,,,-99.99,,2013-09-13 11:20:00,
2013-09-13 04:28:00,75.0,0.0,29.90,North,8,1.0,3.0,38,-99.99,,,-99.99,,2013-09-13 11:28:00,
2013-09-13 04:36:00,74.0,0.0,29.90,NNW,345,2.0,2.0,39,-99.99,,,-99.99,,2013-09-13 11:36:00,
2013-09-13 04:44:00,74.0,0.0,29.90,WNW,303,3.0,3.0,37,-99.99,,,-99.99,,2013-09-13 11:44:00,
2013-09-13 04:52:00,74.0,0.0,29.90,NNW,335,5.0,6.0,38,-99.99,,,-99.99,,2013-09-13 11:52:00,
2013-09-13 05:00:00,74.0,0.0,29.90,North,354,3.0,6.0,38,-99.99,,,-99.99,,2013-09-13 12:00:00,
2013-09-13 05:08:00,74.0,0.0,29.90,NNE,32,2.0,6.0,37,-99.99,,,-99.99,,2013-09-13 12:08:00,
2013-09-13 05:16:00,73.0,0.0,29.90,North,353,3.0,5.0,38,-99.99,,,-99.99,,2013-09-13 12:16:00,
2013-09-13 05:24:00,73.0,0.0,29.90,NNE,23,1.0,3.0,41,-99.99,,,-99.99,,2013-09-13 12:24:00,
2013-09-13 05:32:00,73.0,0.0,29.90,North,355,2.0,3.0,40,-99.99,,,-99.99,,2013-09-13 12:32:00,
2013-09-13 05:40:00,73.0,0.0,29.90,North,355,2.0,3.0,39,-99.99,,,-99.99,,2013-09-13 12:40:00,
2013-09-13 05:48:00,74.0,0.0,29.90,NNW,333,2.0,3.0,39,-99.99,,,-99.99,,2013-09-13 12:48:00,
2013-09-13 05:56:00,75.0,0.0,29.90,South,180,1.0,5.0,38,-99.99,,,-99.99,,2013-09-13 12:56:00,
2013-09-13 06:04:00,74.0,0.0,29.90,North,356,1.0,5.0,39,-99.99,,,-99.99,,2013-09-13 13:04:00,
2013-09-13 06:12:00,73.0,0.0,29.90,NE,48,3.0,5.0,40,-99.99,,,-99.99,,2013-09-13 13:12:00,
2013-09-13 06:20:00,72.0,0.0,29.90,ENE,59,2.0,5.0,40,-99.99,,,-99.99,,2013-09-13 13:20:00,
2013-09-13 06:28:00,73.0,0.0,29.90,NNE,27,1.0,2.0,40,-99.99,,,-99.99,,2013-09-13 13:28:00,
2013-09-13 06:36:00,74.0,0.0,29.91,NNE,12,0.0,2.0,39,-99.99,,,-99.99,,2013-09-13 13:36:00,
2013-09-13 06:44:00,74.0,0.0,29.91,North,10,0.0,1.0,39,-99.99,,,-99.99,,2013-09-13 13:44:00,
2013-09-13 06:52:00,74.0,0.0,29.91,North,350,0.0,1.0,38,-99.99,,,-99.99,,2013-09-13 13:52:00,
2013-09-13 07:00:00,74.0,0.0,29.91,ENE,57,1.0,2.0,38,-99.99,,,-99.99,,2013-09-13 14:00:00,
2013-09-13 07:08:00,73.0,0.0,29.91,NE,53,0.0,2.0,40,-99.99,,,-99.99,,2013-09-13 14:08:00,
2013-09-13 07:16:00,73.0,0.0,29.91,NNE,28,0.0,1.0,41,-99.99,,,-99.99,,2013-09-13 14:16:00,
2013-09-13 07:24:00,73.0,0.0,29.91,SE,139,0.0,2.0,40,-99.99,,,-99.99,,2013-09-13 14:24:00,
2013-09-13 07:32:00,73.0,0.0,29.91,South,176,2.0,2.0,40,-99.99,,,-99.99,,2013-09-13 14:32:00,
2013-09-13 07:40:00,73.0,0.0,29.91,SW,217,0.0,2.0,40,-99.99,,,-99.99,,2013-09-13 14:40:00,
2013-09-13 07:48:00,74.0,0.0,29.91,South,169,0.0,1.0,41,-99.99,,,-99.99,,2013-09-13 14:48:00,
2013-09-13 07:56:00,74.0,0.0,29.91,SSW,195,1.0,1.0,40,-99.99,,,-99.99,,2013-09-13 14:56:00,
2013-09-13 08:04:00,74.0,0.0,29.91,SW,221,2.0,2.0,39,-99.99,,,-99.99,,2013-09-13 15:04:00,
2013-09-13 08:12:00,75.0,0.0,29.91,SSW,194,1.0,2.0,39,-99.99,,,-99.99,,2013-09-13 15:12:00,
2013-09-13 08:20:00,76.0,0.0,29.91,NE,55,0.0,2.0,37,-99.99,,,-99.99,,2013-09-13 15:20:00,
2013-09-13 08:28:00,76.0,0.0,29.91,SSW,204,0.0,2.0,37,-99.99,,,-99.99,,2013-09-13 15:28:00,
2013-09-13 08:36:00,77.0,0.0,29.91,SSW,194,2.0,5.0,36,-99.99,,,-99.99,,2013-09-13 15:36:00,
2013-09-13 08:44:00,78.0,0.0,29.91,SSE,166,2.0,5.0,35,-99.99,,,-99.99,,2013-09-13 15:44:00,
2013-09-13 08:52:00,79.0,0.0,29.91,South,174,0.0,3.0,36,-99.99,,,-99.99,,2013-09-13 15:52:00,
2013-09-13 09:00:00,78.0,0.0,29.91,ENE,70,0.0,3.0,36,-99.99,,,-99.99,,2013-09-13 16:00:00,
2013-09-13 09:08:00,79.0,0.0,29.91,ENE,71,2.0,3.0,37,-99.99,,,-99.99,,2013-09-13 16:08:00,
2013-09-13 09:16:00,79.0,0.0,29.91,NE,38,2.0,5.0,34,-99.99,,,-99.99,,2013-09-13 16:16:00,
2013-09-13 09:24:00,80.0,0.0,29.91,NE,53,2.0,5.0,34,-99.99,,,-99.99,,2013-09-13 16:24:00,
2013-09-13 09:32:00,80.0,0.0,29.91,SE,140,1.0,5.0,33,-99.99,,,-99.99,,2013-09-13 16:32:00,
2013-09-13 09:40:00,81.0,0.0,29.91,South,171,2.0,3.0,33,-99.99,,,-99.99,,2013-09-13 16:40:00,
2013-09-13 09:48:00,82.0,0.0,29.91,South,189,6.0,7.0,32,-99.99,,,-99.99,,2013-09-13 16:48:00,
2013-09-13 09:56:00,82.0,0.0,29.91,SSE,157,5.0,7.0,33,-99.99,,,-99.99,,2013-09-13 16:56:00,
2013-09-13 10:04:00,82.0,0.0,29.91,SE,146,5.0,9.0,32,-99.99,,,-99.99,,2013-09-13 17:04:00,
2013-09-13 10:12:00,82.0,0.0,29.91,SSW,200,7.0,13.0,30,-99.99,,,-99.99,,2013-09-13 17:12:00,
2013-09-13 10:20:00,83.0,0.0,29.91,South,180,9.0,12.0,30,-99.99,,,-99.99,,2013-09-13 17:20:00,
2013-09-13 10:28:00,84.0,0.0,29.90,SSE,151,6.0,10.0,29,-99.99,,,-99.99,,2013-09-13 17:28:00,
2013-09-13 10:36:00,84.0,0.0,29.90,SSW,203,8.0,12.0,29,-99.99,,,-99.99,,2013-09-13 17:36:00,
2013-09-13 10:44:00,85.0,0.0,29.90,SSE,152,5.0,12.0,29,-99.99,,,-99.99,,2013-09-13 17:44:00,
2013-09-13 10:52:00,86.0,0.0,29.90,SSE,159,8.0,12.0,28,-99.99,,,-99.99,,2013-09-13 17:52:00,
2013-09-13 11:00:00,86.0,0.0,29.90,SSE,151,7.0,12.0,29,-99.99,,,-99.99,,2013-09-13 18:00:00,
2013-09-13 11:08:00,87.0,0.0,29.89,SSE,164,7.0,13.0,27,-99.99,,,-99.99,,2013-09-13 18:08:00,
2013-09-13 11:16:00,87.0,0.0,29.89,SSE,158,12.0,13.0,28,-99.99,,,-99.99,,2013-09-13 18:16:00,
2013-09-13 11:24:00,88.0,0.0,29.89,SSE,153,6.0,14.0,29,-99.99,,,-99.99,,2013-09-13 18:24:00,
2013-09-13 11:32:00,88.0,0.0,29.89,South,176,13.0,15.0,26,-99.99,,,-99.99,,2013-09-13 18:32:00,
2013-09-13 11:40:00,89.0,0.0,29.88,SSE,165,16.0,16.0,25,-99.99,,,-99.99,,2013-09-13 18:40:00,
2013-09-13 11:48:00,89.0,0.0,29.88,South,183,9.0,18.0,29,-99.99,,,-99.99,,2013-09-13 18:48:00,
2013-09-13 11:56:00,89.0,0.0,29.87,South,172,12.0,17.0,27,-99.99,,,-99.99,,2013-09-13 18:56:00,
2013-09-13 12:04:00,89.0,0.0,29.87,East,82,3.0,16.0,26,-99.99,,,-99.99,,2013-09-13 19:04:00,
2013-09-13 12:12:00,91.0,0.0,29.87,SE,133,5.0,14.0,25,-99.99,,,-99.99,,2013-09-13 19:12:00,
2013-09-13 12:20:00,90.0,0.0,29.87,SE,144,6.0,14.0,26,-99.99,,,-99.99,,2013-09-13 19:20:00,
2013-09-13 12:28:00,91.0,0.0,29.86,SE,144,6.0,15.0,25,-99.99,,,-99.99,,2013-09-13 19:28:00,
2013-09-13 12:36:00,90.0,0.0,29.86,South,172,5.0,15.0,25,-99.99,,,-99.99,,2013-09-13 19:36:00,
2013-09-13 12:44:00,92.0,0.0,29.85,South,181,12.0,21.0,25,-99.99,,,-99.99,,2013-09-13 19:44:00,
2013-09-13 12:52:00,90.0,0.0,29.85,SSE,165,9.0,18.0,26,-99.99,,,-99.99,,2013-09-13 19:52:00,
2013-09-13 13:00:00,92.0,0.0,29.85,SE,129,2.0,15.0,24,-99.99,,,-99.99,,2013-09-13 20:00:00,
2013-09-13 13:08:00,92.0,0.0,29.84,SSE,154,12.0,16.0,24,-99.99,,,-99.99,,2013-09-13 20:08:00,
2013-09-13 13:16:00,91.0,0.0,29.84,SSE,153,3.0,20.0,26,-99.99,,,-99.99,,2013-09-13 20:16:00,
2013-09-13 13:24:00,94.0,0.0,29.83,SSE,150,10.0,16.0,24,-99.99,,,-99.99,,2013-09-13 20:24:00,
2013-09-13 13:32:00,95.0,0.0,29.83,East,100,5.0,16.0,23,-99.99,,,-99.99,,2013-09-13 20:32:00,
2013-09-13 13:40:00,94.0,0.0,29.83,South,179,15.0,16.0,23,-99.99,,,-99.99,,2013-09-13 20:40:00,
2013-09-13 13:48:00,92.0,0.0,29.82,SSE,149,13.0,16.0,24,-99.99,,,-99.99,,2013-09-13 20:48:00,
2013-09-13 13:56:00,93.0,0.0,29.81,South,176,14.0,21.0,25,-99.99,,,-99.99,,2013-09-13 20:56:00,
2013-09-13 14:04:00,92.0,0.0,29.81,South,185,9.0,21.0,27,-99.99,,,-99.99,,2013-09-13 21:04:00,
2013-09-13 14:12:00,93.0,0.0,29.81,SSE,151,3.0,16.0,23,-99.99,,,-99.99,,2013-09-13 21:12:00,
2013-09-13 14:20:00,95.0,0.0,29.81,SSE,153,13.0,22.0,22,-99.99,,,-99.99,,2013-09-13 21:20:00,
2013-09-13 14:28:00,93.0,0.0,29.81,South,170,7.0,16.0,23,-99.99,,,-99.99,,2013-09-13 21:28:00,
2013-09-13 14:36:00,96.0,0.0,29.80,SSE,152,9.0,16.0,23,-99.99,,,-99.99,,2013-09-13 21:36:00,
2013-09-13 14:44:00,96.0,0.0,29.80,South,173,6.0,16.0,22,-99.99,,,-99.99,,2013-09-13 21:44:00,
2013-09-13 14:52:00,97.0,0.0,29.80,SE,132,5.0,16.0,22,-99.99,,,-99.99,,2013-09-13 21:52:00,
2013-09-13 15:00:00,97.0,0.0,29.80,South,169,7.0,16.0,21,-99.99,,,-99.99,,2013-09-13 22:00:00,
2013-09-13 15:08:00,96.0,0.0,29.80,South,174,0.0,17.0,21,-99.99,,,-99.99,,2013-09-13 22:08:00,
2013-09-13 15:16:00,98.0,0.0,29.79,SE,146,3.0,15.0,20,-99.99,,,-99.99,,2013-09-13 22:16:00,
2013-09-13 15:24:00,98.0,0.0,29.79,SSE,152,14.0,15.0,20,-99.99,,,-99.99,,2013-09-13 22:24:00,
2013-09-13 15:32:00,93.0,0.0,29.79,SSE,156,10.0,20.0,24,-99.99,,,-99.99,,2013-09-13 22:32:00,
2013-09-13 15:40:00,96.0,0.0,29.78,SE,138,5.0,18.0,21,-99.99,,,-99.99,,2013-09-13 22:40:00,
2013-09-13 15:48:00,95.0,0.0,29.78,SSW,207,3.0,10.0,22,-99.99,,,-99.99,,2013-09-13 22:48:00,
2013-09-13 15:56:00,94.0,0.0,29.78,SSW,199,12.0,13.0,22,-99.99,,,-99.99,,2013-09-13 22:56:00,
2013-09-13 16:04:00,94.0,0.0,29.78,SW,233,3.0,15.0,22,-99.99,,,-99.99,,2013-09-13 23:04:00,
2013-09-13 16:12:00,95.0,0.0,29.77,SSE,164,2.0,13.0,22,-99.99,,,-99.99,,2013-09-13 23:12:00,
2013-09-13 16:20:00,97.0,0.0,29.77,East,100,2.0,17.0,21,-99.99,,,-99.99,,2013-09-13 23:20:00,
2013-09-13 16:28:00,97.0,0.0,29.77,SSE,153,3.0,12.0,21,-99.99,,,-99.99,,2013-09-13 23:28:00,
2013-09-13 16:36:00,94.0,0.0,29.77,South,174,7.0,12.0,25,-99.99,,,-99.99,,2013-09-13 23:36:00,
2013-09-13 16:44:00,95.0,0.0,29.77,SW,227,5.0,12.0,21,-99.99,,,-99.99,,2013-09-13 23:44:00,
2013-09-13 16:52:00,95.0,0.0,29.77,WSW,253,5.0,8.0,21,-99.99,,,-99.99,,2013-09-13 23:52:00,
2013-09-13 17:00:00,95.0,0.0,29.76,SSE,161,8.0,16.0,21,-99.99,,,-99.99,,2013-09-14 00:00:00,
2013-09-13 17:08:00,96.0,0.0,29.76,SSE,148,5.0,16.0,21,-99.99,,,-99.99,,2013-09-14 00:08:00,
2013-09-13 17:16:00,97.0,0.0,29.76,NE,44,5.0,9.0,20,-99.99,,,-99.99,,2013-09-14 00:16:00,
2013-09-13 17:24:00,95.0,0.0,29.76,South,182,10.0,15.0,22,-99.99,,,-99.99,,2013-09-14 00:24:00,
2013-09-13 17:32:00,94.0,0.0,29.76,SSW,194,12.0,15.0,23,-99.99,,,-99.99,,2013-09-14 00:32:00,
2013-09-13 17:40:00,95.0,0.0,29.76,SSE,161,12.0,13.0,23,-99.99,,,-99.99,,2013-09-14 00:40:00,
2013-09-13 17:48:00,94.0,0.0,29.76,WSW,243,5.0,13.0,21,-99.99,,,-99.99,,2013-09-14 00:48:00,
2013-09-13 17:56:00,95.0,0.0,29.75,South,173,10.0,10.0,21,-99.99,,,-99.99,,2013-09-14 00:56:00,
2013-09-13 18:04:00,95.0,0.0,29.75,SE,127,7.0,14.0,22,-99.99,,,-99.99,,2013-09-14 01:04:00,
2013-09-13 18:12:00,93.0,0.0,29.75,SSE,164,8.0,13.0,23,-99.99,,,-99.99,,2013-09-14 01:12:00,
2013-09-13 18:20:00,92.0,0.0,29.75,SE,143,5.0,12.0,23,-99.99,,,-99.99,,2013-09-14 01:20:00,
2013-09-13 18:28:00,92.0,0.0,29.75,SSW,196,8.0,13.0,22,-99.99,,,-99.99,,2013-09-14 01:28:00,
2013-09-13 18:36:00,93.0,0.0,29.75,South,176,5.0,10.0,23,-99.99,,,-99.99,,2013-09-14 01:36:00,
2013-09-13 18:44:00,92.0,0.0,29.75,SSE,156,6.0,7.0,23,-99.99,,,-99.99,,2013-09-14 01:44:00,
2013-09-13 18:52:00,92.0,0.0,29.75,SSE,156,2.0,7.0,24,-99.99,,,-99.99,,2013-09-14 01:52:00,
2013-09-13 19:00:00,91.0,0.0,29.75,SSE,157,5.0,5.0,23,-99.99,,,-99.99,,2013-09-14 02:00:00,
2013-09-13 19:08:00,90.0,0.0,29.75,SSE,154,2.0,6.0,24,-99.99,,,-99.99,,2013-09-14 02:08:00,
2013-09-13 19:16:00,90.0,0.0,29.76,SSE,155,2.0,6.0,24,-99.99,,,-99.99,,2013-09-14 02:16:00,
2013-09-13 19:24:00,90.0,0.0,29.75,SSE,156,5.0,5.0,24,-99.99,,,-99.99,,2013-09-14 02:24:00,
2013-09-13 19:32:00,89.0,0.0,29.76,SSE,159,6.0,6.0,24,-99.99,,,-99.99,,2013-09-14 02:32:00,
2013-09-13 19:40:00,89.0,0.0,29.76,SSE,155,3.0,6.0,24,-99.99,,,-99.99,,2013-09-14 02:40:00,
2013-09-13 19:48:00,87.0,0.0,29.76,SW,219,5.0,7.0,25,-99.99,,,-99.99,,2013-09-14 02:48:00,
2013-09-13 19:56:00,87.0,0.0,29.77,South,183,6.0,8.0,24,-99.99,,,-99.99,,2013-09-14 02:56:00,
2013-09-13 20:04:00,88.0,0.0,29.77,South,188,5.0,7.0,25,-99.99,,,-99.99,,2013-09-14 03:04:00,
2013-09-13 20:12:00,88.0,0.0,29.77,WSW,241,5.0,6.0,29,-99.99,,,-99.99,,2013-09-14 03:12:00,
2013-09-13 20:20:00,87.0,0.0,29.78,WNW,295,5.0,7.0,26,-99.99,,,-99.99,,2013-09-14 03:20:00,
2013-09-13 20:28:00,87.0,0.0,29.78,WNW,289,3.0,7.0,26,-99.99,,,-99.99,,2013-09-14 03:28:00,
2013-09-13 20:36:00,87.0,0.0,29.78,West,275,5.0,6.0,27,-99.99,,,-99.99,,2013-09-14 03:36:00,
2013-09-13 20:44:00,86.0,0.0,29.78,West,274,5.0,6.0,30,-99.99,,,-99.99,,2013-09-14 03:44:00,
2013-09-13 20:52:00,86.0,0.0,29.78,West,271,3.0,6.0,27,-99.99,,,-99.99,,2013-09-14 03:52:00,
2013-09-13 21:00:00,86.0,0.0,29.78,West,276,5.0,7.0,28,-99.99,,,-99.99,,2013-09-14 04:00:00,
2013-09-13 21:04:00,86.0,0.0,29.78,West,270,6.0,7.0,27,-99.99,,,-99.99,,2013-09-14 04:04:00,
2013-09-13 21:08:00,86.0,0.0,29.79,West,265,5.0,7.0,27,-99.99,,,-99.99,,2013-09-14 04:08:00,
2013-09-13 21:16:00,86.0,0.0,29.79,West,263,5.0,6.0,28,-99.99,,,-99.99,,2013-09-14 04:16:00,
2013-09-13 21:20:00,86.0,0.0,29.79,West,263,5.0,6.0,28,-99.99,,,-99.99,,2013-09-14 04:20:00,
2013-09-13 21:21:00,86.0,0.0,29.79,WSW,256,5.0,6.0,27,-99.99,,,-99.99,,2013-09-14 04:21:00,
2013-09-13 21:28:00,85.0,0.0,29.79,West,260,5.0,7.0,28,-99.99,,,-99.99,,2013-09-14 04:28:00,
2013-09-13 21:36:00,85.0,0.0,29.79,West,272,5.0,6.0,28,-99.99,,,-99.99,,2013-09-14 04:36:00,
2013-09-13 21:44:00,84.0,0.0,29.79,West,273,5.0,6.0,28,-99.99,,,-99.99,,2013-09-14 04:44:00,
2013-09-13 21:52:00,84.0,0.0,29.79,WNW,291,5.0,5.0,29,-99.99,,,-99.99,,2013-09-14 04:52:00,
2013-09-13 22:00:00,83.0,0.0,29.79,WNW,300,6.0,7.0,27,-99.99,,,-99.99,,2013-09-14 05:00:00,
2013-09-13 22:08:00,83.0,0.0,29.79,NW,313,5.0,7.0,28,-99.99,,,-99.99,,2013-09-14 05:08:00,
2013-09-13 22:16:00,84.0,0.0,29.80,NW,326,6.0,8.0,27,-99.99,,,-99.99,,2013-09-14 05:16:00,
2013-09-13 22:24:00,84.0,0.0,29.80,NW,313,6.0,8.0,28,-99.99,,,-99.99,,2013-09-14 05:24:00,
2013-09-13 22:32:00,83.0,0.0,29.80,NW,309,7.0,7.0,28,-99.99,,,-99.99,,2013-09-14 05:32:00,
2013-09-13 22:40:00,83.0,0.0,29.80,NW,321,6.0,8.0,27,-99.99,,,-99.99,,2013-09-14 05:40:00,
2013-09-13 22:48:00,82.0,0.0,29.80,NNW,348,7.0,9.0,29,-99.99,,,-99.99,,2013-09-14 05:48:00,
2013-09-13 22:56:00,82.0,0.0,29.80,NNW,335,2.0,9.0,31,-99.99,,,-99.99,,2013-09-14 05:56:00,
2013-09-13 23:04:00,80.0,0.0,29.80,North,357,5.0,8.0,31,-99.99,,,-99.99,,2013-09-14 06:04:00,
2013-09-13 23:12:00,80.0,0.0,29.80,North,357,5.0,6.0,31,-99.99,,,-99.99,,2013-09-14 06:12:00,
2013-09-13 23:20:00,80.0,0.0,29.80,NNW,347,2.0,6.0,32,-99.99,,,-99.99,,2013-09-14 06:20:00,
2013-09-13 23:28:00,81.0,0.0,29.80,NE,44,3.0,5.0,29,-99.99,,,-99.99,,2013-09-14 06:28:00,
2013-09-13 23:36:00,81.0,0.0,29.80,NE,43,2.0,5.0,30,-99.99,,,-99.99,,2013-09-14 06:36:00,
2013-09-13 23:44:00,80.0,0.0,29.80,NE,37,1.0,5.0,32,-99.99,,,-99.99,,2013-09-14 06:44:00,
2013-09-13 23:52:00,80.0,0.0,29.80,NE,35,3.0,5.0,30,-99.99,,,-99.99,,2013-09-14 06:52:00,